This demonstration page uses our WeatherBlox Daily Observations layout. Learn more.

38.88101, -77.10428

Hourly Observations for April 4, 2020

Temp ( °F °C ) Dew Point ( °F °C ) Humidity (%) Winds ( mph kmh ) Pressure ( in mb ) Visibility ( mi km ) Precip ( " mm )
12:52 am 00:52 Cloudy 53 11.7 38 3.3 57 57 N 13 20 29.93 1014 10 16.0934 0 0
1:52 am 01:52 Mostly Cloudy 51 10.6 38 3.3 61 61 N 13 20 29.94 1014 10 16.0934 0 0
2:52 am 02:52 Cloudy 52 11.1 39 3.9 61 61 N 13 20 29.94 1014 10 16.0934 0 0
3:52 am 03:52 Cloudy 51 10.6 39 3.9 64 64 N 9 15 29.94 1014 10 16.0934 0 0
4:52 am 04:52 Cloudy 50 10 38 3.3 63 63 NNW 10 17 29.95 1014 10 16.0934 0 0
5:52 am 05:52 Cloudy 51 10.6 38 3.3 61 61 N 13 20 29.96 1015 10 16.0934 0 0
6:52 am 06:52 Cloudy 51 10.6 39 3.9 64 64 N 13 20 29.98 1015 10 16.0934 0 0
7:52 am 07:52 Cloudy 51 10.6 41 5 69 69 NNE 10 17 29.99 1016 10 16.0934 0 0
8:52 am 08:52 Cloudy 52 11.1 43 6.1 72 72 N 10 17 30.01 1016 10 16.0934 0.001 0.001
9:52 am 09:52 Cloudy 53 11.7 43 6.1 69 69 N 9 15 30.03 1017 10 16.0934 0 0
10:52 am 10:52 Cloudy 56 13.3 44 6.7 65 65 N 8 13 30.04 1017 10 16.0934 0 0
11:52 am 11:52 Cloudy 58 14.4 44 6.7 60 60 NNE 5 7 30.04 1017 10 16.0934 0 0
12:52 pm 12:52 Cloudy 58 14.4 43 6.1 58 58 NE 8 13 30.02 1017 10 16.0934 0 0
1:52 pm 13:52 Cloudy 58 14.4 44 6.7 60 60 ENE 8 13 30.02 1017 10 16.0934 0 0
2:52 pm 14:52 Cloudy 58 14.4 44 6.7 60 60 NNE 7 11 30.02 1017 10 16.0934 0 0
3:52 pm 15:52 Cloudy 58 14.4 44 6.7 60 60 Calm 30.01 1016 10 16.0934 0 0
4:52 pm 16:52 Cloudy 59 15 43 6.1 56 56 NNE 6 9 30.01 1016 10 16.0934 0 0
5:52 pm 17:52 Cloudy 58 14.4 45 7.2 62 62 ENE 3 6 30.01 1016 10 16.0934 0 0
6:52 pm 18:52 Mostly Cloudy 59 15 43 6.1 56 56 Calm 30.02 1017 10 16.0934 0 0
7:52 pm 19:52 Mostly Cloudy 57 13.9 45 7.2 64 64 ESE 6 9 30.02 1017 10 16.0934 0 0
8:52 pm 20:52 Mostly Cloudy 55 12.8 45 7.2 69 69 ESE 8 13 30.05 1018 10 16.0934 0 0
9:13 pm 21:13 Mostly Clear 54 12.2 44 6.7 69 69 S 3 6 30.06 1018 10 16.0934 0 0
9:52 pm 21:52 Partly Cloudy 52 11.1 44 6.7 75 75 SSW 6 9 30.07 1018 10 16.0934 0 0
10:52 pm 22:52 Mostly Cloudy 53 11.7 45 7.2 74 74 Calm 30.07 1018 10 16.0934 0 0
11:52 pm 23:52 Mostly Cloudy 51 10.6 44 6.7 77 77 SSW 3 6 30.08 1019 10 16.0934 0 0

Powered by AerisWeather